Temperature
8 9 9 10 11 12 12 12 12 12 12 12 13 13 13 13 12 13 13 12 12 11 11 11 11 11 12 12 12 12 12 12 12 12 12 12 12 12 12 12 12 11 11 11
8 9 10 11 11 10 11 11 12 11 11 12 12 13 13 13 12 12 12 12 11 11 11 10 11 11 11 11 12 12 12 12 12 12 12 12 12 12 11 11 11 11 11 11
8 9 9 9 9 9 10 11 11 11 10 11 11 12 12 12 11 11 11 11 11 11 10 10 10 11 11 11 11 12 12 12 12 11 11 11 11 11 11 11 11 11 10 10
8 8 9 9 9 10 9 10 10 10 10 11 11 12 13 12 11 11 11 10 10 10 10 9 10 10 11 11 11 11 11 11 11 11 11 11 11 11 11 11 10 10 10 10
7 7 8 8 9 10 9 9 10 10 10 10 10 11 13 11 11 11 11 10 9 9 9 9 9 10 11 11 11 11 11 11 11 11 11 11 10 10 10 10 10 10 9 9
7 7 8 8 8 9 8 9 9 9 9 9 10 11 12 12 11 11 11 9 9 8 8 8 9 9 10 10 10 10 10 10 10 10 10 10 10 10 10 10 10 9 9 9
6 6 7 7 7 7 9 8 8 8 8 9 10 10 12 11 10 10 9 8 8 7 7 7 8 8 9 9 9 10 10 10 10 10 10 10 10 9 9 9 9 9 9 9
6 6 6 7 7 7 8 9 9 9 9 10 8 10 11 9 8 7 7 7 6 6 6 6 7 7 8 9 9 9 9 9 9 9 9 9 9 9 9 9 9 8 8 8
6 6 6 6 6 7 7 9 9 9 8 9 9 9 9 8 8 7 6 6 6 5 5 6 6 6 7 8 8 8 8 8 9 9 9 9 8 8 8 8 8 8 8 7
6 5 5 5 6 6 7 8 8 8 8 9 9 9 10 8 7 7 6 6 5 5 5 5 5 5 6 7 7 7 7 8 8 8 8 8 8 8 7 7 7 7 7 7
5 4 4 5 5 6 6 6 7 8 8 9 9 10 8 7 7 7 6 5 4 4 4 4 4 5 5 6 6 6 6 7 7 7 7 7 7 7 7 7 7 7 6 6
4 4 4 4 4 5 6 6 7 7 6 7 9 9 6 6 6 5 5 4 3 3 3 3 4 4 4 5 5 6 6 6 6 6 6 7 7 7 6 6 6 6 6 6
3 3 4 4 4 4 4 5 5 6 6 7 8 8 5 5 5 4 4 3 2 2 2 3 3 3 3 4 5 5 5 5 6 6 6 6 6 6 6 6 6 6 5 5
3 2 4 5 5 4 4 4 4 5 6 6 7 7 6 5 5 4 3 2 2 2 2 2 2 2 3 3 4 4 5 5 5 5 5 5 5 5 5 5 5 5 5 5
2 2 2 3 3 4 4 4 4 4 6 6 6 6 6 5 5 4 3 2 2 1 1 2 2 2 2 3 3 4 4 4 4 4 5 5 5 5 5 5 5 5 5 5
0 1 2 2 3 3 3 4 4 4 5 5 4 4 4 4 3 3 2 2 1 1 1 1 1 1 2 2 3 3 3 3 4 4 4 4 4 4 4 4 4 4 4 4
0 0 2 3 3 3 3 3 3 4 4 4 5 4 4 3 2 2 2 1 1 1 0 0 1 1 2 2 2 3 3 3 3 3 3 3 3 4 4 4 4 4 4 4
-1 -0 1 2 2 2 3 2 2 3 3 3 3 3 2 2 1 1 1 1 1 0 0 0 0 1 1 2 2 2 2 2 3 3 3 3 3 3 3 3 3 3 3 3
-1 -0 1 1 2 2 2 1 1 1 1 2 1 1 1 0 0 0 -0 0 0 0 -0 -0 0 0 1 1 1 1 2 2 2 2 2 2 2 2 2 2 2 2 2 2
-1 -1 0 1 2 2 1 0 -1 1 1 1 0 0 0 0 2 1 -1 -1 -0 -0 -0 -0 -0 0 0 0 1 1 1 1 1 1 1 1 1 1 1 2 2 2 2 1
-2 -1 -1 0 1 1 -1 -2 -0 1 1 -1 -1 -1 -1 0 0 -1 -1 -1 -1 -1 -1 -1 -0 -0 -0 -0 -0 0 0 0 0 0 1 1 1 1 1 1 1 1 1 1
-2 -1 -1 -1 0 -0 -2 -1 -1 -1 -2 -2 -2 -2 -2 -2 -2 -2 -2 -2 -2 -2 -1 -1 -1 -1 -1 -1 -1 -1 -1 -0 -0 -0 -0 0 0 0 0 0 0 0 0 -0
-3 -2 -2 -2 -1 -2 -3 -3 -3 -3 -3 -3 -3 -3 -3 -3 -3 -3 -3 -3 -2 -2 -2 -2 -2 -1 -1 -1 -1 -1 -1 -1 -1 -1 -1 -1 -1 -0 -0 -0 -0 -1 -1 -1
-3 -4 -3 -3 -3 -3 -4 -4 -4 -4 -4 -4 -4 -3 -3 -3 -3 -3 -3 -3 -3 -3 -2 -2 -2 -2 -2 -2 -2 -2 -1 -2 -1 -1 -1 -1 -1 -1 -1 -1 -1 -1 -1 -2
-4 -4 -3 -3 -3 -3 -4 -4 -4 -4 -4 -4 -4 -4 -4 -3 -4 -4 -4 -3 -3 -3 -3 -3 -3 -2 -2 -2 -2 -2 -2 -2 -2 -2 -2 -2 -2 -2 -2 -2 -2 -2 -2 -2
-5 -4 -3 -3 -3 -3 -4 -5 -5 -4 -4 -4 -4 -4 -4 -4 -4 -4 -4 -4 -4 -3 -3 -3 -3 -3 -3 -3 -3 -3 -3 -3 -2 -2 -2 -2 -2 -2 -2 -2 -2 -2 -3 -3
Wind_Speed
9 10 15 18 18 10 11 12 13 10 6 11 14 13 10 7 7 9 9 9 10 9 8 7 8 9 9 9 10 10 10 9 8 6 6 5 5 4 3 3 3 4 3 3
9 14 15 14 13 9 11 12 10 5 5 8 10 13 10 9 9 9 9 9 9 8 7 7 8 9 10 10 11 10 10 10 9 7 6 4 4 3 3 3 3 3 3 3
13 9 12 13 14 12 12 13 11 7 4 5 6 9 11 9 8 7 8 7 8 8 8 8 8 9 9 10 11 10 10 10 10 8 6 5 4 3 3 3 3 3 2 2
9 7 11 14 15 14 11 9 9 9 8 5 7 7 10 10 9 9 8 8 7 7 7 7 8 8 9 9 8 9 10 10 10 9 8 9 6 5 5 4 3 3 3 3
7 8 12 15 14 13 7 7 8 8 7 5 8 7 6 7 9 11 9 8 7 6 6 7 7 7 7 7 7 8 9 9 9 9 9 9 7 5 4 4 4 3 3 3
4 4 7 8 8 10 9 9 6 4 5 8 11 10 7 7 9 8 8 7 5 4 4 5 5 5 6 6 7 7 9 9 9 9 9 9 8 6 6 6 5 4 2 2
4 4 3 5 8 10 11 10 5 6 7 8 8 9 7 2 3 5 6 5 4 3 3 4 5 5 6 7 7 8 9 9 9 9 8 8 8 7 7 6 5 4 3 2
7 7 5 5 6 8 13 13 8 7 8 5 7 9 3 2 1 1 1 1 1 1 1 3 4 4 5 6 7 8 8 8 8 8 7 7 6 5 4 5 4 4 3 2
6 5 4 4 3 7 9 10 3 1 2 4 6 5 3 2 2 2 2 2 1 1 1 2 3 3 4 5 6 7 7 7 7 7 6 6 6 5 4 4 4 3 3 2
2 4 4 3 4 1 4 6 4 5 6 6 7 7 5 4 3 2 2 1 2 2 2 3 3 3 3 4 4 5 5 6 6 6 5 4 5 4 4 4 4 3 2 2
2 4 4 4 5 7 6 6 4 4 4 5 6 4 1 3 2 2 2 1 1 2 3 3 3 4 4 4 4 4 4 4 5 5 5 5 4 4 4 3 3 3 2 2
1 2 3 3 0 2 4 6 6 6 4 4 4 2 2 2 2 2 2 2 2 3 3 4 4 4 4 4 4 4 4 4 4 4 4 4 4 4 4 3 3 3 2 2
2 4 4 4 3 3 3 4 5 2 3 5 6 3 2 3 2 2 3 3 3 3 4 4 4 4 4 4 4 4 3 3 3 4 4 4 4 4 3 3 2 2 2 2
2 2 4 7 4 5 6 6 7 5 5 6 7 5 3 2 1 2 2 3 3 3 4 4 4 4 4 4 4 4 3 3 3 3 3 3 3 3 2 2 1 1 1 1
2 2 1 0 1 4 6 8 8 9 8 7 6 6 5 4 3 2 3 3 3 3 3 4 4 4 4 4 4 4 3 3 3 3 3 2 2 2 2 1 1 1 1 1
2 2 2 1 2 3 3 5 8 9 8 6 6 6 3 2 2 2 3 3 3 3 3 3 3 3 3 3 3 3 3 3 3 3 2 2 2 2 1 1 0 0 1 1
1 1 1 2 2 2 3 5 6 6 5 7 8 6 4 3 3 3 3 4 3 3 3 3 2 2 2 2 2 2 2 2 3 3 2 2 2 1 1 0 0 1 1 1
1 1 1 2 3 5 1 1 3 5 4 4 3 3 4 3 2 1 2 4 3 3 3 3 2 2 2 2 2 2 2 2 2 2 2 2 2 1 0 0 1 1 1 2
1 2 1 2 3 2 2 2 1 3 3 3 4 3 3 3 2 0 0 2 2 2 2 2 2 2 2 2 2 2 2 2 2 2 2 2 2 1 1 1 1 2 2 2
3 1 1 2 2 3 1 3 4 2 2 1 2 3 3 4 4 2 1 1 1 2 2 2 2 3 3 2 2 2 2 2 1 1 2 2 2 2 2 2 2 2 2 2
1 1 1 2 2 1 3 5 2 4 1 2 1 2 2 3 1 1 1 2 2 3 3 2 2 2 2 2 2 2 2 1 2 2 2 2 2 2 2 2 2 2 2 2
1 1 1 1 3 2 4 2 1 2 3 2 1 1 0 1 2 2 2 2 3 3 3 3 2 2 2 2 1 2 1 2 2 1 1 2 2 2 2 2 2 1 1 2
1 1 1 1 1 2 1 2 3 3 2 2 1 1 1 2 2 2 2 2 2 2 2 2 2 2 2 2 2 1 2 2 2 1 1 2 3 2 2 2 2 1 1 1
1 2 1 1 2 3 3 3 3 2 2 2 1 0 1 2 2 2 2 1 1 1 1 1 2 1 1 2 2 2 2 2 2 2 2 2 2 2 2 2 2 1 1 2
3 2 2 3 4 3 3 4 4 3 2 2 2 1 1 2 2 2 1 1 1 1 1 1 1 1 2 2 2 2 2 2 2 2 2 2 2 2 2 2 2 2 2 2
2 2 3 3 3 3 4 5 4 3 2 2 1 1 1 1 2 1 1 0 1 0 0 1 1 1 1 2 2 2 2 2 2 2 2 2 2 2 2 2 2 2 2 3
Wind_Direction
180 193 199 199 203 214 199 202 207 208 197 206 218 227 224 218 219 217 212 210 208 208 201 192 192 189 184 181 180 179 176 171 166 162 163 165 168 162 157 152 157 164 165 173
180 208 205 197 195 198 200 201 203 196 189 208 222 235 234 226 224 223 216 213 212 209 200 193 188 188 189 187 186 184 182 177 176 174 168 166 159 164 160 156 158 160 161 168
196 202 193 190 191 196 204 205 199 185 174 203 215 234 222 217 219 222 221 219 218 213 208 199 195 192 190 191 190 188 185 181 179 172 158 143 137 141 163 171 171 174 175 177
206 194 184 190 197 198 205 204 192 180 184 202 204 231 217 208 211 215 218 218 221 219 217 208 202 197 194 192 189 189 184 181 178 173 172 171 177 184 190 183 178 177 181 186
193 186 186 195 197 195 189 169 183 189 200 214 209 231 222 193 213 214 214 216 221 223 220 212 207 202 196 189 186 185 181 179 177 179 180 184 189 187 173 170 175 179 179 184
179 177 192 193 184 179 150 137 135 173 200 225 211 215 230 200 211 209 211 216 222 226 226 219 203 194 186 180 179 179 178 179 178 180 183 189 188 181 173 178 180 183 182 183
164 159 154 157 152 168 172 158 161 183 202 222 189 214 233 181 213 220 218 222 226 228 220 206 189 183 177 175 174 176 175 177 178 180 184 187 188 186 186 185 187 187 189 195
176 177 169 167 175 177 188 189 195 197 202 198 193 219 210 78 74 180 190 209 210 203 193 188 183 180 175 173 171 172 173 174 175 179 182 184 184 185 185 186 187 193 196 195
183 173 151 156 159 167 180 199 212 183 172 197 202 219 236 146 128 122 124 109 98 115 118 145 158 162 163 165 168 170 170 170 173 175 174 177 178 178 175 176 180 187 189 185
153 152 158 151 144 151 192 168 171 184 186 213 212 220 207 181 178 139 117 104 81 86 93 103 122 131 139 149 152 157 165 167 169 170 169 170 172 171 168 168 172 174 182 189
117 139 147 160 186 181 164 177 187 187 223 218 215 209 121 183 167 148 114 88 73 86 95 95 100 106 113 116 123 132 145 149 154 158 160 160 160 161 162 165 169 171 179 189
84 136 150 175 250 218 202 194 191 195 202 227 231 201 68 144 137 127 99 69 69 81 87 90 93 101 106 110 113 118 124 133 142 148 150 150 149 151 155 159 165 170 178 187
136 143 141 154 159 169 191 196 201 188 187 212 222 199 107 128 119 114 103 89 83 85 83 84 88 92 97 100 100 101 105 109 117 130 140 142 143 146 151 154 156 167 182 195
79 129 202 204 199 181 197 202 201 195 213 222 234 221 217 202 165 127 113 101 92 91 89 85 84 84 87 90 92 90 92 96 103 116 127 131 134 138 141 143 154 174 194 208
60 106 112 28 176 184 205 209 205 212 223 229 231 230 231 230 224 177 151 134 117 107 100 93 87 81 80 80 82 84 83 85 93 101 111 115 110 109 114 123 151 188 220 229
37 119 113 97 149 157 198 220 214 220 224 227 227 248 239 218 174 171 170 160 149 136 120 105 93 82 75 72 74 77 73 71 80 89 89 95 101 100 103 113 142 221 243 245
10 148 161 201 162 139 224 232 213 206 215 218 231 239 208 202 202 202 182 169 166 158 144 131 113 93 72 61 66 70 68 70 75 76 73 72 85 95 94 102 206 273 268 263
155 126 146 169 170 208 244 348 230 211 231 248 245 220 200 197 204 202 193 179 166 156 147 140 126 91 63 57 63 69 72 74 72 68 58 44 48 47 24 340 290 286 275 265
192 162 150 173 197 244 281 335 291 217 256 278 227 212 187 141 125 186 152 171 172 160 142 121 106 91 75 65 67 81 78 76 68 49 30 19 8 351 324 305 300 292 276 268
66 121 169 183 205 218 319 350 322 246 239 357 205 198 195 191 213 223 122 106 107 113 105 97 87 76 67 56 68 84 77 69 41 3 350 351 350 329 311 304 298 287 272 271
32 58 191 212 217 254 332 317 271 203 277 357 291 228 217 224 245 127 120 95 92 93 88 86 87 72 48 37 62 71 54 13 340 332 332 340 343 324 315 311 300 291 276 275
283 212 203 217 206 240 355 10 204 315 338 329 314 296 223 124 108 109 105 93 94 92 86 81 78 61 38 27 44 53 22 349 336 331 334 337 335 328 315 312 309 303 282 279
253 281 273 231 243 330 339 305 311 313 302 315 315 310 149 134 129 116 107 98 97 96 86 81 86 67 36 20 19 26 346 336 325 324 328 328 326 320 309 304 303 302 287 274
297 301 236 251 287 314 328 332 338 339 327 332 340 301 150 141 142 129 123 114 106 94 76 73 75 57 20 7 359 341 328 322 317 318 322 318 314 314 316 308 302 294 280 273
300 288 258 257 284 309 337 337 329 337 353 13 26 56 137 139 147 147 145 139 118 78 37 37 47 13 344 345 344 339 332 321 313 315 315 312 305 303 313 315 311 296 285 271
294 265 268 269 300 290 307 330 336 348 358 9 38 49 72 131 150 141 130 145 137 105 38 30 16 351 333 336 334 328 319 306 300 304 306 304 302 304 304 308 313 321 294 292
Height
1465 1466 1463 1463 1465 1466 1468 1471 1473 1475 1481 1482 1481 1481 1483 1486 1488 1488 1490 1491 1493 1495 1498 1499 1501 1504 1507 1510 1513 1515 1518 1521 1523 1526 1528 1530 1531 1533 1534 1535 1537 1537 1538 1538
1463 1460 1460 1464 1467 1470 1470 1471 1473 1478 1481 1481 1480 1480 1481 1483 1485 1486 1487 1489 1491 1493 1495 1496 1498 1501 1503 1506 1509 1512 1515 1518 1520 1523 1525 1527 1529 1530 1532 1533 1534 1535 1535 1536
1454 1456 1460 1464 1467 1469 1470 1470 1471 1476 1480 1481 1481 1477 1477 1480 1483 1485 1486 1487 1488 1490 1491 1493 1495 1497 1500 1502 1505 1508 1511 1514 1517 1519 1522 1524 1526 1528 1529 1530 1531 1532 1533 1533
1455 1458 1460 1462 1464 1466 1469 1470 1473 1475 1477 1477 1478 1472 1468 1473 1478 1481 1482 1484 1485 1487 1489 1490 1491 1494 1496 1499 1502 1505 1508 1511 1513 1516 1518 1521 1522 1524 1525 1527 1528 1529 1530 1530
1455 1458 1458 1460 1461 1465 1467 1472 1474 1475 1475 1478 1477 1475 1463 1471 1473 1475 1478 1480 1482 1484 1485 1486 1488 1490 1492 1495 1498 1501 1504 1507 1510 1512 1515 1518 1520 1522 1523 1524 1525 1526 1527 1527
1456 1459 1459 1460 1463 1466 1470 1474 1476 1477 1476 1479 1470 1471 1460 1464 1466 1470 1474 1477 1479 1481 1482 1483 1485 1487 1489 1492 1495 1497 1500 1503 1506 1509 1512 1514 1516 1518 1519 1521 1522 1523 1524 1524
1457 1459 1461 1462 1464 1468 1467 1469 1475 1477 1476 1468 1468 1468 1461 1463 1468 1470 1473 1475 1476 1478 1479 1480 1482 1483 1486 1488 1491 1494 1497 1500 1503 1506 1509 1511 1513 1515 1516 1518 1519 1520 1521 1521
1453 1456 1460 1461 1460 1461 1462 1461 1463 1464 1464 1463 1472 1465 1461 1469 1471 1472 1473 1474 1475 1476 1477 1477 1479 1481 1483 1486 1488 1491 1494 1497 1500 1503 1505 1508 1510 1512 1513 1515 1516 1517 1518 1518
1449 1454 1460 1461 1462 1461 1462 1460 1461 1463 1465 1464 1462 1462 1466 1469 1470 1471 1473 1474 1474 1475 1475 1476 1477 1479 1481 1483 1486 1488 1491 1494 1497 1500 1502 1505 1507 1508 1510 1512 1513 1514 1515 1515
1451 1457 1460 1462 1463 1465 1462 1462 1465 1464 1463 1457 1457 1458 1456 1464 1467 1470 1472 1473 1473 1474 1474 1475 1476 1478 1480 1482 1484 1487 1489 1492 1494 1497 1499 1502 1504 1506 1507 1509 1510 1511 1512 1512
1453 1457 1461 1462 1461 1460 1464 1465 1462 1460 1458 1454 1454 1455 1462 1465 1468 1470 1472 1473 1473 1474 1474 1475 1475 1477 1479 1481 1483 1485 1487 1490 1492 1494 1497 1499 1501 1502 1504 1506 1507 1508 1509 1509
1455 1455 1459 1463 1465 1465 1462 1461 1461 1461 1465 1459 1452 1460 1467 1468 1470 1471 1473 1474 1474 1474 1474 1475 1475 1476 1478 1479 1481 1483 1485 1488 1490 1492 1494 1496 1498 1500 1501 1503 1504 1505 1505 1506
1456 1457 1458 1461 1466 1467 1464 1464 1464 1463 1464 1460 1455 1462 1468 1469 1470 1472 1473 1474 1474 1474 1474 1475 1475 1476 1477 1479 1480 1482 1484 1486 1488 1490 1492 1494 1495 1497 1498 1500 1501 1502 1502 1503
1457 1458 1455 1451 1451 1457 1462 1464 1464 1464 1461 1459 1457 1460 1465 1468 1470 1472 1473 1474 1474 1474 1474 1475 1476 1476 1477 1478 1480 1481 1483 1485 1487 1488 1490 1491 1493 1494 1496 1497 1498 1499 1499 1499
1458 1460 1460 1458 1458 1459 1460 1461 1462 1463 1459 1458 1458 1462 1464 1468 1470 1472 1473 1474 1474 1475 1475 1475 1476 1476 1477 1478 1479 1480 1482 1484 1485 1487 1488 1489 1491 1492 1493 1494 1495 1495 1496 1496
1463 1462 1461 1461 1459 1459 1461 1460 1460 1460 1460 1461 1463 1465 1467 1469 1471 1472 1473 1474 1474 1474 1475 1475 1476 1476 1477 1478 1479 1480 1481 1483 1484 1485 1486 1487 1489 1490 1491 1491 1492 1492 1492 1492
1465 1465 1461 1458 1460 1459 1461 1462 1461 1461 1461 1461 1459 1462 1466 1469 1471 1471 1472 1473 1473 1474 1474 1475 1475 1476 1477 1477 1478 1479 1481 1482 1483 1484 1485 1486 1487 1487 1488 1488 1489 1489 1489 1488
1468 1467 1464 1460 1462 1462 1463 1464 1463 1462 1463 1463 1462 1464 1466 1468 1470 1471 1472 1472 1473 1473 1474 1475 1475 1476 1477 1477 1478 1479 1480 1481 1482 1483 1484 1484 1485 1485 1485 1485 1485 1485 1485 1485
1467 1467 1464 1462 1460 1460 1463 1466 1466 1464 1464 1465 1464 1465 1467 1469 1470 1471 1471 1472 1472 1473 1473 1474 1475 1475 1476 1477 1477 1478 1479 1480 1481 1481 1482 1482 1483 1483 1483 1482 1482 1482 1482 1481
1469 1469 1466 1464 1458 1458 1463 1467 1467 1467 1463 1466 1465 1465 1466 1467 1466 1468 1470 1470 1471 1472 1472 1473 1474 1474 1475 1476 1477 1477 1478 1478 1479 1480 1480 1480 1480 1480 1480 1479 1479 1478 1478 1477
1470 1469 1467 1464 1462 1462 1469 1468 1467 1465 1463 1467 1466 1466 1466 1466 1466 1468 1468 1469 1469 1470 1471 1472 1473 1474 1474 1475 1476 1476 1476 1477 1477 1478 1478 1478 1478 1478 1477 1476 1476 1475 1475 1474
1471 1468 1470 1466 1463 1467 1470 1468 1468 1467 1468 1467 1466 1466 1466 1465 1465 1466 1467 1467 1468 1469 1470 1471 1472 1472 1473 1474 1474 1474 1474 1475 1475 1476 1476 1476 1475 1475 1474 1473 1473 1472 1472 1471
1475 1475 1471 1472 1472 1472 1471 1470 1469 1468 1468 1467 1466 1466 1465 1465 1465 1466 1466 1467 1468 1469 1469 1470 1471 1471 1472 1472 1473 1473 1473 1473 1474 1474 1474 1473 1473 1472 1472 1471 1470 1469 1468 1468
1476 1477 1475 1473 1471 1472 1471 1470 1468 1468 1467 1466 1466 1465 1465 1465 1465 1466 1466 1467 1467 1468 1469 1469 1470 1470 1470 1471 1471 1471 1471 1472 1472 1472 1471 1471 1470 1470 1469 1468 1467 1466 1466 1465
1477 1476 1474 1472 1472 1470 1470 1469 1468 1467 1466 1466 1465 1465 1465 1464 1465 1465 1466 1466 1467 1467 1468 1468 1468 1468 1469 1469 1469 1469 1469 1469 1469 1469 1469 1468 1468 1467 1466 1465 1465 1464 1463 1463
1477 1477 1473 1470 1472 1471 1470 1469 1468 1466 1466 1465 1465 1464 1464 1464 1464 1465 1465 1465 1466 1466 1466 1466 1467 1467 1467 1467 1467 1467 1467 1467 1467 1466 1466 1466 1465 1464 1463 1462 1462 1461 1461 1460